Погода в Оноре

Россия / Сахалинская область     50°11′29″N   142°40′55″E
темп.,
°C
ветер,
м/с
пор.,
м/с
влажн.,
%
обл.,
%
осадки,
мм/ч
давл.,
гПа
погр.,
м
14 мая, пт
пт1423:00+2ююв3897100 0.1 1013392
02:00+1ююв2697100 0.1 1013304
05:00+1ю2598100 0.1 1012236
08:00+2ю249699 0.0 1012197
11:00+7ююв237790 0.0 1012515
14:00+11ю336790 0.1 1011796
17:00+12юв236731 0.2 1011466
20:00+11ююв257317 0.1 1012173
15 мая, сб
сб1523:00+5ююв38955 0.1 1015186
02:00+2ююв379850 0.0 1016191
05:00+2ююв4897100 0.0 1015259
08:00+2ююв51094100 0.0 1015378
11:00+5ююв61282100 0.0 1013533
14:00+5ююв71586100 0.0 1010627
17:00+3ююв71492100 0.1 1007493
20:00+3ююв71796100 3.8 1003760
16 мая, вс
вс1623:00+6ююв71397100 12.1 1001627
02:00+4ююв61198100 1.8 999453
05:00+4ююв499657 1.9 996384
08:00+7юз5128569 0.9 996964
11:00+11зюз6106678 1.3 9961675
14:00+11зюз7116562 0.6 9961535
17:00+11зсз6115548 1.0 9981722
20:00+9з48616 0.0 999958
17 мая, пн
пн1723:00+5зсз11865 0.0 100111
02:00+3зсз119237 0.0 100210
05:00+3ссв009279 0.0 100210
08:00+7ююв12735 0.0 1002202
11:00+15ююв244926 0.0 10001124
14:00+19юз483491 0.0 9982308
17:00+20юз583493 0.0 9961960
20:00+15ююв47605 0.0 997224
18 мая, вт
вт1823:00+8ю34802 0.0 99887
02:00+6ю11825 0.0 99827
05:00+6зюз11811 0.0 99912
08:00+10сз25650 0.0 1001340
11:00+15сз473655 0.0 10011520
14:00+17сз47264 0.0 10021932
17:00+18сз46282 0.0 10022142
20:00+14ссв25500 0.0 1004132